[[{"header":{"parameterUnit":"m.s-1","parameterCategory":1,"la1":30.2991,"la2":30.254,"lo1":-89.0895,"lo2":-89.0444,"dy":0.0017,"dx":0.0017,"nx":28,"ny":28,"refTime":"2024-05-01T03:00:00:Z","depth":0,"parameterNumber":2,"parameterNumberName":"U-component_of_WINDS"},"data":[0,0,0,0,0,0,0,0,0,0,0,0,0,0,0,0,0,0,0,0,0,0,0,0,0,0,0,0,0,0,0,0,0,0,0,0,0,0,0,0,0,0,0,0,0,0,0,0,0,0,0,0,0,0,0,0,0,0,-2.9543,-2.9543,0,-2.9509,-2.9509,-2.9509,-2.9426,-2.9425,-2.9423,-2.9421,-2.9389,-2.939,-2.9391,0,0,0,0,0,0,0,0,0,0,0,0,0,-2.954,-2.954,-2.9543,-2.9543,-2.9543,-2.951,-2.9509,-2.9509,-2.9427,-2.9424,-2.9422,-2.942,-2.9389,-2.939,-2.9391,0,0,0,0,0,0,0,0,0,0,0,0,0,-2.9527,-2.9541,-2.9543,-2.9498,-2.9493,-2.951,-2.9509,-2.9508,-2.9427,-2.9424,-2.9422,-2.9419,-2.9389,-2.939,-2.9391,-2.945,0,0,-2.9394,-2.9395,0,0,0,0,0,0,0,0,-2.9528,-2.9528,-2.9505,-2.9501,-2.9496,-2.9469,-2.9496,-2.9489,-2.9428,-2.9452,-2.9421,-2.9418,-2.9418,-2.9417,-2.9416,-2.9449,-2.9447,-2.9394,-2.9395,-2.9396,-2.9396,0,0,0,0,0,0,0,-2.9529,-2.9529,-2.953,-2.9505,-2.9499,-2.948,-2.9475,-2.9494,-2.945,-2.945,-2.9444,-2.9441,-2.9415,-2.9415,-2.9415,-2.9447,-2.9394,-2.9395,-2.9396,-2.9397,-2.9526,-2.9529,0,0,0,0,0,0,-2.9536,-2.953,-2.9531,-2.9529,-2.9506,-2.9482,-2.9477,-2.9481,-2.945,-2.9443,-2.9443,-2.9437,-2.9415,-2.9414,-2.9413,-2.948,-2.9396,-2.9397,-2.9397,-2.9523,-2.9527,-2.953,0,0,0,0,0,0,-2.9537,-2.9537,-2.9532,-2.9528,-2.9526,-2.9485,-2.949,-2.9481,-2.9481,-2.9445,-2.9437,-2.9451,-2.9412,-2.9412,-2.9441,-2.9478,-2.9397,-2.9398,-2.952,-2.9524,-2.9528,-2.9615,0,0,0,0,0,0,-2.9537,-2.9538,-2.9559,-2.9529,-2.9526,-2.956,-2.9492,-2.9482,-2.9483,-2.9475,-2.945,-2.9443,-2.941,-2.944,-2.9443,-2.9478,-2.9399,-2.9517,-2.9522,-2.9527,-2.9609,-2.9621,-2.9632,0,0,0,0,0,-2.9537,-2.9585,-2.9561,-2.9561,-2.9552,-2.9563,-2.9561,-2.9521,-2.9486,-2.9508,-2.9484,-2.9444,-2.9474,-2.9444,-2.9446,-2.9482,-2.9514,-2.9521,-2.9527,-2.9603,-2.9619,-2.9632,0,0,0,0,0,0,-2.9622,-2.9581,-2.9552,-2.9592,-2.9582,-2.9549,-2.9574,-2.954,-2.9539,-2.9532,-2.9483,-2.9478,-2.9515,-2.9502,-2.9469,-2.9538,-2.9487,-2.9494,-2.9545,-2.956,-2.9571,-2.9574,-2.94,0,0,0,0,0,-2.9645,-2.9656,-2.962,-2.9659,-2.9655,-2.9616,-2.9619,-2.959,-2.9577,-2.9572,-2.9551,-2.9541,-2.9547,-2.9553,-2.9557,-2.9607,-2.96,-2.9633,-2.9645,-2.9655,-2.9661,-2.9686,-2.97,-2.955,-2.955,-2.955,0,0,-2.9693,-2.9672,-2.9682,-2.9675,-2.9663,-2.9677,-2.9613,-2.963,-2.9639,-2.9575,-2.9601,-2.9585,-2.9571,-2.9611,-2.9627,-2.9601,-2.9701,-2.9663,-2.9671,-2.9672,-2.9694,-2.9708,-2.9721,-2.9554,-2.9554,-2.9553,0,0,-2.9788,-2.9773,-2.9804,-2.9793,-2.9775,-2.9749,-2.9757,-2.9729,-2.9716,-2.9742,-2.9694,-2.9705,-2.9718,-2.971,-2.9707,-2.98,-2.9763,-2.9803,-2.9865,-2.989,-2.9902,-2.9912,-2.9945,-2.9957,-2.9809,-2.981,-2.981,0,-2.985,-2.9868,-2.9824,-2.9844,-2.9842,-2.9784,-2.9815,-2.9807,-2.9793,-2.9794,-2.9764,-2.9779,-2.9766,-2.9802,-2.9825,-2.9825,-2.9833,-2.9805,-2.9904,-2.9913,-2.9922,-2.9953,-2.9965,-2.9815,-2.9814,-2.9814,-2.9813,0,-2.9945,-2.9958,-2.9985,-2.9971,-2.9973,-2.9999,-2.996,-2.9967,-2.9938,-2.9915,-2.9943,-2.9924,-2.9924,-2.993,-2.9902,-2.9964,-2.9948,-2.9912,-2.986,-2.9942,-2.997,-2.9982,-2.9822,-2.982,-2.9818,-2.9817,0,0,-3.0091,-3.0053,-3.0064,-3.0057,-3.0034,-3.0043,-3.0067,-3.0066,-3.0073,-3.0065,-3.0084,-3.0097,-3.0063,-3.0061,-3.0031,-3.0053,-3.0128,-3.0015,-3.0014,-3.0036,-3.0194,-3.022,-3.0234,-3.0103,-3.0105,-3.0107,-3.0195,0,-3.018,-3.0216,-3.0178,-3.0222,-3.0234,-3.0179,-3.02,-3.0189,-3.0168,-3.0176,-3.0154,-3.0164,-3.0119,-3.0117,-3.0137,-3.0114,-3.0159,-3.0108,-3.012,-3.0121,-3.0125,-3.0249,-3.0277,-3.0361,-3.0205,-3.0207,-3.0209,0,-3.0287,-3.0284,-3.0329,-3.0303,-3.0307,-3.0326,-3.0321,-3.033,-3.0316,-3.03,-3.0297,-3.0262,-3.0284,-3.0234,-3.0264,-3.023,-3.0233,-3.0223,-3.0226,-3.0224,-3.0169,-3.0251,-3.0386,-3.0399,-3.0225,-3.0224,-3.0223,0,-3.0389,-3.0396,-3.0423,-3.0419,-3.039,-3.0405,-3.0393,-3.0377,-3.0379,-3.0376,-3.0376,-3.0377,-3.0377,-3.0378,-3.0344,-3.0311,-3.0378,-3.0326,-3.0366,-3.0367,-3.0381,-3.0381,-3.0519,-3.0385,-3.0385,-3.0385,-3.0385,0,-3.0491,-3.0521,-3.0468,-3.0486,-3.0518,-3.0475,-3.0508,-3.0491,-3.0477,-3.0491,-3.0444,-3.0458,-3.0413,-3.0422,-3.0396,-3.0424,-3.0425,-3.0413,-3.0405,-3.0417,-3.0418,-3.0417,-3.041,-3.0388,-3.0387,-3.0387,-3.0386,0,-3.0609,-3.0575,-3.0602,-3.0572,-3.0565,-3.059,-3.0565,-3.058,-3.0557,-3.0575,-3.0577,-3.0541,-3.055,-3.0516,-3.052,-3.0502,-3.0544,-3.0527,-3.0548,-3.0543,-3.0585,-3.0581,-3.0726,-3.0743,-3.06,-3.0601,-3.0603,0,-3.0676,-3.0698,-3.067,-3.0675,-3.0666,-3.0675,-3.0676,-3.0635,-3.0639,-3.0625,-3.0642,-3.0647,-3.0648,-3.0665,-3.064,-3.0643,-3.0625,-3.0676,-3.0625,-3.0636,-3.0625,-3.0624,-3.0626,-3.0686,-3.0688,-3.069,-3.0691,0,-3.0798,-3.0781,-3.0784,-3.0782,-3.0784,-3.0781,-3.0774,-3.0782,-3.0737,-3.0744,-3.0752,-3.0753,-3.0756,-3.0762,-3.0759,-3.0748,-3.0713,-3.0707,-3.0716,-3.0728,-3.0739,-3.0733,-3.0576,-3.0704,-3.0702,-3.0701,-3.0701,-3.07,-3.0892,-3.0909,-3.0892,-3.0897,-3.0888,-3.0883,-3.0896,-3.0874,-3.088,-3.0878,-3.0854,-3.0867,-3.0853,-3.0846,-3.0838,-3.0848,-3.0825,-3.0838,-3.0842,-3.0846,-3.0852,-3.0738,-3.0848,-3.0848,-3.0847,-3.0847,-3.0847,0,-3.1012,-3.0998,-3.1004,-3.0995,-3.1,-3.0965,-3.0957,-3.0963,-3.0974,-3.0964,-3.0967,-3.0976,-3.0981,-3.0957,-3.0959,-3.0972,-3.0955,-3.0974,-3.0972,-3.097,-3.0874,-3.0865,-3.0987,-3.0987,-3.0987,-3.0987,-3.0987,-3.0987,-3.1074,-3.1101,-3.1081,-3.1102,-3.1089,-3.11,-3.1098,-3.1093,-3.1085,-3.1097,-3.1101,-3.1085,-3.1069,-3.107,-3.1073,-3.1066,-3.1069,-3.1093,-3.108,-3.099,-3.0977,-3.0964,-3.0955,-3.1094,-3.1094,-3.1175,-3.1176,-3.1176]},{"header":{"parameterUnit":"m.s-1","parameterCategory":1,"la1":30.2991,"la2":30.254,"lo1":-89.0895,"lo2":-89.0444,"dy":0.0017,"dx":0.0017,"nx":28,"ny":28,"refTime":"2024-05-01T03:00:00:Z","depth":0,"parameterNumber":3,"parameterNumberName":"V-component_of_WINDS"},"data":[0,0,0,0,0,0,0,0,0,0,0,0,0,0,0,0,0,0,0,0,0,0,0,0,0,0,0,0,0,0,0,0,0,0,0,0,0,0,0,0,0,0,0,0,0,0,0,0,0,0,0,0,0,0,0,0,0,0,2.7478,2.7478,0,2.7459,2.7459,2.7458,2.7428,2.7428,2.7427,2.7427,2.7404,2.7404,2.7403,0,0,0,0,0,0,0,0,0,0,0,0,0,2.7488,2.7488,2.7478,2.7478,2.7478,2.7459,2.7459,2.7458,2.7428,2.7428,2.7427,2.7427,2.7404,2.7404,2.7403,0,0,0,0,0,0,0,0,0,0,0,0,0,2.7478,2.7488,2.7478,2.7461,2.7459,2.7459,2.7459,2.7458,2.7429,2.7428,2.7427,2.7426,2.7404,2.7404,2.7403,2.7418,0,0,2.7403,2.7403,0,0,0,0,0,0,0,0,2.7478,2.7477,2.7464,2.7462,2.746,2.7445,2.7453,2.7445,2.7429,2.744,2.7427,2.7426,2.7418,2.7417,2.7414,2.7417,2.7416,2.7403,2.7403,2.7403,2.7402,0,0,0,0,0,0,0,2.7479,2.7478,2.747,2.7463,2.7461,2.7453,2.7451,2.7452,2.7433,2.7439,2.7437,2.7435,2.7417,2.7415,2.7414,2.7415,2.7403,2.7403,2.7402,2.7402,2.743,2.7431,0,0,0,0,0,0,2.7483,2.7479,2.7471,2.747,2.7468,2.7454,2.7451,2.7451,2.7433,2.743,2.7436,2.7434,2.7415,2.7414,2.7413,2.7429,2.7403,2.7402,2.7402,2.7429,2.743,2.7431,0,0,0,0,0,0,2.7483,2.7482,2.7472,2.7474,2.7472,2.7454,2.7454,2.7451,2.7449,2.7431,2.7427,2.7437,2.7415,2.7413,2.7417,2.7428,2.7402,2.7402,2.7428,2.743,2.7431,2.7462,0,0,0,0,0,0,2.7483,2.7483,2.7488,2.7474,2.7472,2.7477,2.7455,2.7451,2.7449,2.7446,2.7431,2.7428,2.7414,2.7418,2.7417,2.7427,2.7402,2.7427,2.7429,2.743,2.746,2.7464,2.7467,0,0,0,0,0,2.7484,2.7497,2.7489,2.7488,2.7479,2.7478,2.7476,2.7461,2.745,2.7455,2.7444,2.7429,2.7427,2.7419,2.7418,2.7428,2.7426,2.7428,2.743,2.7458,2.7463,2.7467,0,0,0,0,0,0,2.7511,2.7494,2.7485,2.7494,2.7488,2.7473,2.7479,2.7467,2.7463,2.746,2.744,2.7437,2.7444,2.7436,2.7427,2.7441,2.7425,2.7426,2.7446,2.7451,2.7454,2.7455,2.7402,0,0,0,0,0,2.7518,2.7519,2.7505,2.7514,2.7512,2.7496,2.7495,2.7484,2.7476,2.7473,2.7462,2.7455,2.7453,2.7451,2.7448,2.7459,2.7455,2.7466,2.747,2.7473,2.7474,2.748,2.7484,2.7437,2.7437,2.7437,0,0,2.7532,2.7523,2.7525,2.7519,2.7513,2.7515,2.7494,2.7496,2.7497,2.7473,2.7477,2.7469,2.7459,2.7467,2.747,2.7461,2.7487,2.7475,2.7478,2.7477,2.7482,2.7487,2.7491,2.7439,2.7439,2.7438,0,0,2.7558,2.7552,2.756,2.7555,2.7546,2.7536,2.7538,2.7526,2.752,2.7524,2.7507,2.7507,2.7504,2.7498,2.7495,2.7522,2.7508,2.7522,2.7541,2.7547,2.7551,2.7554,2.7564,2.7567,2.7523,2.7523,2.7524,0,2.7577,2.7579,2.7565,2.7569,2.7566,2.7547,2.7554,2.755,2.7541,2.7539,2.753,2.7527,2.7519,2.7525,2.7532,2.753,2.7532,2.7522,2.7552,2.7555,2.7558,2.7566,2.757,2.7525,2.7525,2.7525,2.7525,0,2.7602,2.7604,2.7611,2.7604,2.7603,2.7609,2.7595,2.7595,2.7585,2.7576,2.7581,2.7571,2.7567,2.7568,2.7557,2.7573,2.7568,2.7556,2.7538,2.7564,2.7572,2.7575,2.7528,2.7527,2.7527,2.7526,0,0,2.7642,2.7629,2.7632,2.7629,2.762,2.7621,2.7626,2.7623,2.7624,2.7619,2.7622,2.7622,2.7611,2.7607,2.7596,2.7601,2.7624,2.7588,2.7588,2.7595,2.7641,2.765,2.7654,2.7615,2.7616,2.7616,2.7642,0,2.7666,2.7674,2.7663,2.7673,2.7675,2.7659,2.7663,2.7658,2.765,2.765,2.7642,2.7642,2.7627,2.7625,2.763,2.762,2.7633,2.7618,2.7617,2.7618,2.7619,2.7658,2.7667,2.7691,2.7645,2.7646,2.7646,0,2.7694,2.7692,2.7704,2.7696,2.7696,2.77,2.7697,2.7698,2.7692,2.7686,2.7684,2.7671,2.7675,2.766,2.7666,2.7656,2.7656,2.7651,2.7652,2.765,2.7632,2.7656,2.7699,2.7702,2.7651,2.765,2.765,0,2.7722,2.7722,2.773,2.7728,2.7718,2.7722,2.7718,2.7711,2.7711,2.7708,2.7708,2.7705,2.7704,2.7702,2.7689,2.7679,2.7697,2.768,2.7691,2.7692,2.7694,2.7694,2.7736,2.7696,2.7696,2.7696,2.7696,0,2.7749,2.7756,2.7742,2.7746,2.7755,2.7742,2.775,2.7744,2.7739,2.7742,2.7727,2.773,2.7714,2.7715,2.7705,2.7711,2.7711,2.7706,2.7703,2.7706,2.7707,2.7704,2.7702,2.7697,2.7696,2.7696,2.7696,0,2.778,2.7771,2.7778,2.7769,2.7767,2.7774,2.7766,2.7769,2.7762,2.7766,2.7766,2.7754,2.7755,2.7743,2.7741,2.7734,2.7745,2.7739,2.7747,2.7745,2.7756,2.7755,2.7797,2.7802,2.776,2.776,2.7761,0,2.7797,2.7803,2.7796,2.7797,2.7795,2.7797,2.7797,2.7785,2.7785,2.7781,2.7785,2.7785,2.7784,2.7786,2.7776,2.7775,2.7769,2.7784,2.7768,2.7772,2.7768,2.7768,2.7768,2.7786,2.7787,2.7787,2.7788,0,2.7829,2.7825,2.7826,2.7826,2.7827,2.7826,2.7824,2.7825,2.7813,2.7814,2.7815,2.7815,2.7814,2.7814,2.7812,2.7807,2.7795,2.7793,2.7796,2.7798,2.7803,2.78,2.7755,2.7792,2.7791,2.7791,2.7791,2.7791,2.7853,2.7858,2.7854,2.7856,2.7854,2.7853,2.7856,2.785,2.7852,2.7851,2.7844,2.7847,2.7842,2.7837,2.7834,2.7836,2.7829,2.7832,2.7833,2.7834,2.7836,2.7804,2.7836,2.7836,2.7835,2.7835,2.7835,0,2.7883,2.7881,2.7883,2.7882,2.7883,2.7875,2.7872,2.7874,2.7877,2.7875,2.7875,2.7877,2.7878,2.787,2.7869,2.7872,2.7867,2.7872,2.7871,2.787,2.7843,2.784,2.7877,2.7877,2.7877,2.7877,2.7877,2.7877,2.7899,2.7907,2.7903,2.7909,2.7907,2.791,2.791,2.7909,2.7907,2.791,2.7911,2.7907,2.7902,2.7902,2.7902,2.79,2.79,2.7907,2.7903,2.7876,2.7872,2.7868,2.7866,2.7907,2.7907,2.793,2.793,2.7931]}]]